DW7287 Weather Reports


Display with metric or nautical units.
time (UTC)temp
F
wind
direction
speed
MPH
gust
MPH
rain 1hr
in
rain 24hr
in
rain mn
in
humidity
%
barometer
mb
20260903174602 93 0 0.0 0.0 0.00 0.00 0.00 58 1017.7
20260903173059 93 0 0.0 0.0 0.00 0.00 0.00 58 1017.9
20260903171615 93 0 0.0 0.0 0.00 0.00 0.00 57 1018.0
20260903170103 93 0 0.0 0.0 0.00 0.00 0.00 56 1018.1
20260903164637 93 0 0.0 0.0 0.00 0.00 0.00 57 1018.2
20260903163103 92 0 0.0 0.0 0.00 0.00 0.00 59 1018.4
20260903161602 92 0 0.0 0.0 0.00 0.00 0.00 61 1018.4
20260903160100 92 0 0.0 0.0 0.00 0.00 0.00 61 1018.6
20260903154602 91 0 0.0 0.0 0.00 0.00 0.00 62 1018.6
20260903153058 91 0 0.0 0.0 0.00 0.00 0.00 62 1018.6
20260903151604 90 0 0.0 0.0 0.00 0.00 0.00 65 1018.7
20260903150107 89 0 0.0 0.0 0.00 0.00 0.00 66 1018.6
20260903144611 89 0 0.0 0.0 0.00 0.00 0.00 66 1018.6
20260903143059 88 0 0.0 0.0 0.00 0.00 0.00 70 1018.6
20260903141606 87 0 0.0 0.0 0.00 0.00 0.00 72 1018.6
20260903140107 85 0 0.0 0.0 0.00 0.00 0.00 75 1018.5
20260903134606 83 0 0.0 0.0 0.00 0.00 0.00 79 1018.5
20260903133104 81 0 0.0 0.0 0.00 0.00 0.00 84 1018.6
20260903131604 79 0 0.0 0.0 0.00 0.00 0.00 90 1018.7
20260903130107 76 0 0.0 0.0 0.00 0.00 0.00 96 1018.8
20260903124610 74 0 0.0 0.0 0.00 0.00 0.00 97 1018.9
20260903123104 73 0 0.0 0.0 0.00 0.00 0.00 97 1019.0
20260903121612 71 0 0.0 0.0 0.00 0.00 0.00 97 1019.0
20260903120106 70 0 0.0 0.0 0.00 0.00 0.00 96 1019.0
20260903114601 69 0 0.0 0.0 0.00 0.00 0.00 96 1018.9
20260903113139 69 0 0.0 0.0 0.00 0.00 0.00 96 1018.8
20260903111601 69 0 0.0 0.0 0.00 0.00 0.00 96 1018.7
20260903110109 69 0 0.0 0.0 0.00 0.00 0.00 96 1018.6
20260903104609 69 0 0.0 0.0 0.00 0.00 0.00 96 1018.4
20260903103101 69 0 0.0 0.0 0.00 0.00 0.00 96 1018.4
20260903101615 70 0 0.0 0.0 0.00 0.00 0.00 96 1018.3
20260903094606 70 0 0.0 0.0 0.00 0.00 0.00 96 1018.1
20260903093107 70 0 0.0 0.0 0.00 0.00 0.00 96 1018.0
20260903091603 70 0 0.0 0.0 0.00 0.00 0.00 96 1018.0
20260903084610 70 0 0.0 0.0 0.00 0.00 0.00 95 1018.1
20260903083108 70 0 0.0 0.0 0.00 0.00 0.00 95 1017.9
20260903081605 71 0 0.0 0.0 0.00 0.00 0.00 95 1017.9
20260903080108 71 0 0.0 0.0 0.00 0.00 0.00 95 1017.9
20260903074602 71 0 0.0 0.0 0.00 0.00 0.00 95 1017.9
20260903073111 71 0 0.0 0.0 0.00 0.00 0.00 95 1017.9
20260903071614 71 0 0.0 0.0 0.00 0.00 0.00 95 1017.8
20260903070103 71 0 0.0 0.0 0.00 0.00 0.00 95 1017.8
20260903064603 72 0 0.0 0.0 0.00 0.00 0.00 95 1017.7
20260903063105 72 0 0.0 0.0 0.00 0.00 0.00 94 1017.7
20260903061606 72 0 0.0 0.0 0.00 0.00 0.00 94 1017.7
20260903060109 72 0 0.0 0.0 0.00 0.00 0.00 95 1017.7
20260903054607 72 0 0.0 0.0 0.00 0.00 0.00 94 1017.6
20260903053103 72 0 0.0 0.0 0.00 0.00 0.00 94 1017.6
20260903051615 72 0 0.0 0.0 0.00 0.00 0.00 94 1017.5
20260903050108 73 0 0.0 0.0 0.00 0.00 0.00 94 1017.4
20260903044601 73 0 0.0 0.0 0.00 0.00 0.00 94 1017.4
20260903043207 73 0 0.0 0.0 0.00 0.00 0.00 93 1017.5
20260903041608 73 0 0.0 0.0 0.00 0.00 0.00 94 1017.5
20260903040104 73 0 0.0 0.0 0.00 0.00 0.00 94 1017.8
20260903034558 74 0 0.0 0.0 0.00 0.00 0.00 94 1017.7
20260903033104 74 0 0.0 0.0 0.00 0.00 0.00 94 1017.7
20260903031603 74 0 0.0 0.0 0.00 0.00 0.00 93 1017.8
20260903024605 74 0 0.0 0.0 0.00 0.00 0.00 92 1018.0
20260903023101 75 0 0.0 0.0 0.00 0.00 0.00 92 1018.0
20260903021600 75 0 0.0 0.0 0.00 0.00 0.00 92 1018.1
20260903020104 75 0 0.0 0.0 0.00 0.00 0.00 90 1018.2
20260903014602 76 0 0.0 0.0 0.00 0.00 0.00 89 1018.0
20260903013109 76 0 0.0 0.0 0.00 0.00 0.00 89 1018.0
20260903011603 76 0 0.0 0.0 0.00 0.00 0.00 88 1017.9
20260903010106 77 0 0.0 0.0 0.00 0.00 0.00 86 1017.9
20260903004606 78 0 0.0 0.0 0.00 0.00 0.00 84 1017.9
20260903003103 79 0 0.0 0.0 0.00 0.00 0.00 81 1017.6
20260903001602 80 0 0.0 0.0 0.00 0.00 0.00 79 1017.5
20260903000100 81 0 0.0 0.0 0.00 0.00 0.00 78 1017.5
20260902234615 82 0 0.0 0.0 0.00 0.00 0.00 76 1017.4
20260902233102 82 0 0.0 1.0 0.00 0.00 0.00 74 1017.4
20260902231617 84 0 0.0 1.0 0.00 0.00 0.00 71 1017.4
20260902230106 85 0 0.0 1.0 0.00 0.00 0.00 68 1017.6
20260902224611 86 0 0.0 1.0 0.00 0.00 0.00 65 1017.6
20260902223102 87 0 0.0 1.0 0.00 0.00 0.00 64 1017.7
20260902221605 88 0 0.0 2.0 0.00 0.00 0.00 62 1017.6
20260902220109 89 0 0.0 2.0 0.00 0.00 0.00 62 1017.7
20260902214603 89 0 0.0 1.0 0.00 0.00 0.00 61 1017.7
20260902213125 89 0 0.0 2.0 0.00 0.00 0.00 61 1017.7
20260902211605 89 145 0.0 3.0 0.00 0.00 0.00 62 1017.6
20260902210059 89 182 0.0 3.0 0.00 0.00 0.00 62 1017.7
20260902204601 89 342 0.0 4.0 0.00 0.00 0.00 60 1018.0
20260902203108 89 261 0.0 2.0 0.00 0.00 0.00 63 1018.2
20260902201608 90 213 2.0 5.0 0.00 0.00 0.00 60 1018.4
20260902200134 89 272 0.0 3.0 0.00 0.00 0.00 61 1018.5
20260902194609 89 261 0.0 5.0 0.00 0.00 0.00 60 1018.6
20260902193103 90 0 0.0 2.0 0.00 0.00 0.00 62 1018.7
20260902191604 90 292 0.0 4.0 0.00 0.00 0.00 61 1018.9
20260902190114 90 0 1.0 4.0 0.00 0.00 0.00 59 1018.9
20260902184608 91 314 1.0 5.0 0.00 0.00 0.00 58 1019.0
20260902183108 91 0 0.0 7.0 0.00 0.00 0.00 60 1019.1
20260902181605 91 47 0.0 4.0 0.00 0.00 0.00 59 1018.9
20260902180133 92 258 1.0 4.0 0.00 0.00 0.00 59 1019.1